Time,TemperatureF,DewpointF,PressureIn,WindDirection,WindDirectionDegrees,WindSpeedMPH,WindSpeedGustMPH,Humidity,HourlyPrecipIn,Conditions,Clouds,dailyrainin,SoftwareType,DateUTC
2013-03-28 00:00:00,38.2,31.0,30.86,West,279,0.0,0.0,75,0.00,,,0.00,Wunderground v.1.15,2013-03-28 04:00:00,
2013-03-28 00:01:00,38.2,31.0,30.86,West,279,0.0,0.0,75,0.00,,,0.00,Wunderground v.1.15,2013-03-28 04:01:00,
2013-03-28 00:03:00,38.1,30.9,30.86,West,279,0.0,0.0,75,0.00,,,0.00,Wunderground v.1.15,2013-03-28 04:03:00,
2013-03-28 00:08:00,38.0,31.1,30.86,West,279,0.0,1.0,76,0.00,,,0.00,Wunderground v.1.15,2013-03-28 04:08:00,
2013-03-28 00:13:00,37.9,31.0,30.86,West,278,0.0,2.0,76,0.00,,,0.00,Wunderground v.1.15,2013-03-28 04:13:00,
2013-03-28 00:18:00,37.8,30.9,30.86,West,273,0.0,2.0,76,0.00,,,0.00,Wunderground v.1.15,2013-03-28 04:18:00,
2013-03-28 00:24:00,37.8,30.9,29.38,West,272,0.0,1.0,76,0.00,,,0.00,Wunderground v.1.15,2013-03-28 04:24:00,
2013-03-28 00:30:00,37.6,30.7,29.38,West,272,0.0,0.0,76,0.00,,,0.00,Wunderground v.1.15,2013-03-28 04:30:00,
2013-03-28 00:35:00,37.6,30.7,29.38,West,272,0.0,1.0,76,0.00,,,0.00,Wunderground v.1.15,2013-03-28 04:35:00,
2013-03-28 00:40:00,37.5,30.6,29.38,West,272,0.0,0.0,76,0.00,,,0.00,Wunderground v.1.15,2013-03-28 04:40:00,
2013-03-28 00:45:00,37.3,30.4,29.38,West,272,0.0,0.0,76,0.00,,,0.00,Wunderground v.1.15,2013-03-28 04:45:00,
2013-03-28 00:51:00,36.8,29.9,29.38,West,272,0.0,0.0,76,0.00,,,0.00,Wunderground v.1.15,2013-03-28 04:51:00,
2013-03-28 00:56:00,36.3,29.8,29.38,West,272,0.0,0.0,77,0.00,,,0.00,Wunderground v.1.15,2013-03-28 04:56:00,
2013-03-28 01:01:00,35.8,29.6,29.38,West,272,0.0,0.0,78,0.00,,,0.00,Wunderground v.1.15,2013-03-28 05:01:00,
2013-03-28 01:07:00,35.4,29.5,29.38,West,272,0.0,0.0,79,0.00,,,0.00,Wunderground v.1.15,2013-03-28 05:07:00,
2013-03-28 01:12:00,35.2,29.3,29.38,West,272,0.0,0.0,79,0.00,,,0.00,Wunderground v.1.15,2013-03-28 05:12:00,
2013-03-28 01:17:00,35.0,29.5,28.28,West,272,0.0,0.0,80,0.00,,,0.00,Wunderground v.1.15,2013-03-28 05:17:00,
2013-03-28 01:22:00,34.6,28.8,28.28,West,272,0.0,0.0,79,0.00,,,0.00,Wunderground v.1.15,2013-03-28 05:22:00,
2013-03-28 01:27:00,34.4,28.9,28.28,West,272,0.0,0.0,80,0.00,,,0.00,Wunderground v.1.15,2013-03-28 05:27:00,
2013-03-28 01:32:00,34.4,29.2,28.28,West,272,0.0,0.0,81,0.00,,,0.00,Wunderground v.1.15,2013-03-28 05:32:00,
2013-03-28 01:38:00,34.9,29.7,28.28,West,272,1.0,5.0,81,0.00,,,0.00,Wunderground v.1.15,2013-03-28 05:38:00,
2013-03-28 01:43:00,35.2,29.6,28.28,West,272,1.0,2.0,80,0.00,,,0.00,Wunderground v.1.15,2013-03-28 05:43:00,
2013-03-28 01:48:00,35.3,29.7,28.28,West,272,1.0,2.0,80,0.00,,,0.00,Wunderground v.1.15,2013-03-28 05:48:00,
2013-03-28 01:53:00,35.3,29.7,28.28,West,272,0.0,1.0,80,0.00,,,0.00,Wunderground v.1.15,2013-03-28 05:53:00,
2013-03-28 01:58:00,35.3,29.7,28.28,West,272,0.0,1.0,80,0.00,,,0.00,Wunderground v.1.15,2013-03-28 05:58:00,
2013-03-28 02:03:00,35.1,29.6,28.28,West,272,1.0,5.0,80,0.00,,,0.00,Wunderground v.1.15,2013-03-28 06:03:00,
2013-03-28 02:09:00,35.1,29.6,28.28,West,272,1.0,5.0,80,0.00,,,0.00,Wunderground v.1.15,2013-03-28 06:09:00,
2013-03-28 02:15:00,35.1,29.6,28.28,West,281,1.0,4.0,80,0.00,,,0.00,Wunderground v.1.15,2013-03-28 06:15:00,
2013-03-28 02:20:00,35.2,29.3,28.28,West,271,2.0,2.0,79,0.00,,,0.00,Wunderground v.1.15,2013-03-28 06:20:00,
2013-03-28 02:25:00,35.3,29.4,28.28,West,265,2.0,5.0,79,0.00,,,0.00,Wunderground v.1.15,2013-03-28 06:25:00,
2013-03-28 02:31:00,35.7,29.2,28.28,West,259,3.0,4.0,77,0.00,,,0.00,Wunderground v.1.15,2013-03-28 06:31:00,
2013-03-28 02:37:00,35.8,29.0,28.28,West,271,3.0,6.0,76,0.00,,,0.00,Wunderground v.1.15,2013-03-28 06:37:00,
2013-03-28 02:42:00,35.9,28.7,28.28,West,259,3.0,5.0,75,0.00,,,0.00,Wunderground v.1.15,2013-03-28 06:42:00,
2013-03-28 02:47:00,35.9,28.7,28.28,WSW,257,2.0,5.0,75,0.00,,,0.00,Wunderground v.1.15,2013-03-28 06:47:00,
2013-03-28 02:53:00,35.7,28.6,28.28,WSW,254,1.0,6.0,75,0.00,,,0.00,Wunderground v.1.15,2013-03-28 06:53:00,
2013-03-28 02:58:00,35.8,28.3,28.28,WSW,254,2.0,6.0,74,0.00,,,0.00,Wunderground v.1.15,2013-03-28 06:58:00,
2013-03-28 03:03:00,35.7,28.2,28.28,West,260,2.0,3.0,74,0.00,,,0.00,Wunderground v.1.15,2013-03-28 07:03:00,
2013-03-28 03:09:00,35.7,28.2,28.28,West,261,2.0,3.0,74,0.00,,,0.00,Wunderground v.1.15,2013-03-28 07:09:00,
2013-03-28 03:14:00,35.6,27.8,28.28,West,263,2.0,4.0,73,0.00,,,0.00,Wunderground v.1.15,2013-03-28 07:14:00,
2013-03-28 03:20:00,35.5,28.0,28.28,West,263,2.0,2.0,74,0.00,,,0.00,Wunderground v.1.15,2013-03-28 07:20:00,
2013-03-28 03:25:00,35.3,27.8,28.28,WSW,257,1.0,6.0,74,0.00,,,0.00,Wunderground v.1.15,2013-03-28 07:25:00,
2013-03-28 03:30:00,35.1,27.6,28.28,WSW,257,1.0,1.0,74,0.00,,,0.00,Wunderground v.1.15,2013-03-28 07:30:00,
2013-03-28 03:36:00,35.0,27.5,28.28,WSW,257,1.0,4.0,74,0.00,,,0.00,Wunderground v.1.15,2013-03-28 07:36:00,
2013-03-28 03:41:00,35.1,27.6,28.28,WSW,246,2.0,4.0,74,0.00,,,0.00,Wunderground v.1.15,2013-03-28 07:41:00,
2013-03-28 03:46:00,35.0,27.5,28.28,WSW,245,2.0,6.0,74,0.00,,,0.00,Wunderground v.1.15,2013-03-28 07:46:00,
2013-03-28 03:51:00,34.7,27.3,28.28,WSW,246,1.0,1.0,74,0.00,,,0.00,Wunderground v.1.15,2013-03-28 07:51:00,
2013-03-28 03:56:00,34.6,27.2,28.28,WSW,245,1.0,2.0,74,0.00,,,0.00,Wunderground v.1.15,2013-03-28 07:56:00,
2013-03-28 04:01:00,34.6,27.2,28.28,WSW,246,1.0,1.0,74,0.00,,,0.00,Wunderground v.1.15,2013-03-28 08:01:00,
2013-03-28 04:06:00,34.4,27.3,28.28,WSW,246,0.0,1.0,75,0.00,,,0.00,Wunderground v.1.15,2013-03-28 08:06:00,
2013-03-28 04:11:00,34.3,27.2,28.28,WSW,245,0.0,0.0,75,0.00,,,0.00,Wunderground v.1.15,2013-03-28 08:11:00,
2013-03-28 04:16:00,34.4,27.3,28.28,WSW,246,1.0,5.0,75,0.00,,,0.00,Wunderground v.1.15,2013-03-28 08:16:00,
2013-03-28 04:22:00,34.4,27.3,28.28,WSW,246,1.0,1.0,75,0.00,,,0.00,Wunderground v.1.15,2013-03-28 08:22:00,
2013-03-28 04:27:00,34.4,27.0,28.28,WSW,246,1.0,2.0,74,0.00,,,0.00,Wunderground v.1.15,2013-03-28 08:27:00,
2013-03-28 04:33:00,34.4,27.0,28.28,WSW,246,1.0,1.0,74,0.00,,,0.00,Wunderground v.1.15,2013-03-28 08:33:00,
2013-03-28 04:39:00,34.4,27.0,28.28,WSW,246,1.0,1.0,74,0.00,,,0.00,Wunderground v.1.15,2013-03-28 08:39:00,
2013-03-28 04:44:00,34.3,27.2,28.28,WSW,246,1.0,1.0,75,0.00,,,0.00,Wunderground v.1.15,2013-03-28 08:44:00,
2013-03-28 04:49:00,33.9,26.8,28.28,WSW,246,0.0,2.0,75,0.00,,,0.00,Wunderground v.1.15,2013-03-28 08:49:00,
2013-03-28 04:54:00,33.8,27.0,28.28,WSW,246,0.0,1.0,76,0.00,,,0.00,Wunderground v.1.15,2013-03-28 08:54:00,
2013-03-28 05:00:00,33.8,27.0,28.28,WSW,246,0.0,0.0,76,0.00,,,0.00,Wunderground v.1.15,2013-03-28 09:00:00,
2013-03-28 05:05:00,33.7,26.9,28.28,WSW,246,0.0,0.0,76,0.00,,,0.00,Wunderground v.1.15,2013-03-28 09:05:00,
2013-03-28 05:11:00,33.6,26.8,28.28,WSW,246,0.0,0.0,76,0.00,,,0.00,Wunderground v.1.15,2013-03-28 09:11:00,
2013-03-28 05:17:00,33.7,26.9,28.28,WSW,246,0.0,0.0,76,0.00,,,0.00,Wunderground v.1.15,2013-03-28 09:17:00,
2013-03-28 05:22:00,33.7,27.3,28.28,WSW,246,0.0,3.0,77,0.00,,,0.00,Wunderground v.1.15,2013-03-28 09:22:00,
2013-03-28 05:28:00,33.8,27.4,28.28,WSW,246,0.0,3.0,77,0.00,,,0.00,Wunderground v.1.15,2013-03-28 09:28:00,
2013-03-28 05:33:00,33.7,27.3,28.28,WSW,246,0.0,0.0,77,0.00,,,0.00,Wunderground v.1.15,2013-03-28 09:33:00,
2013-03-28 05:39:00,33.5,27.1,28.28,WSW,246,0.0,0.0,77,0.00,,,0.00,Wunderground v.1.15,2013-03-28 09:39:00,
2013-03-28 05:44:00,33.4,27.0,28.28,WSW,246,0.0,0.0,77,0.00,,,0.00,Wunderground v.1.15,2013-03-28 09:44:00,
2013-03-28 05:50:00,33.1,26.7,28.28,WSW,246,0.0,0.0,77,0.00,,,0.00,Wunderground v.1.15,2013-03-28 09:50:00,
2013-03-28 05:55:00,32.8,26.4,28.28,WSW,246,0.0,0.0,77,0.00,,,0.00,Wunderground v.1.15,2013-03-28 09:55:00,
2013-03-28 06:00:00,32.4,26.0,28.28,WSW,246,0.0,0.0,77,0.00,,,0.00,Wunderground v.1.15,2013-03-28 10:00:00,
2013-03-28 06:06:00,32.0,25.9,28.28,WSW,246,0.0,0.0,78,0.00,,,0.00,Wunderground v.1.15,2013-03-28 10:06:00,
2013-03-28 06:11:00,31.6,25.8,28.28,WSW,246,0.0,0.0,79,0.00,,,0.00,Wunderground v.1.15,2013-03-28 10:11:00,
2013-03-28 06:16:00,31.2,25.7,28.28,WSW,246,0.0,0.0,80,0.00,,,0.00,Wunderground v.1.15,2013-03-28 10:16:00,
2013-03-28 06:22:00,30.7,25.3,28.28,WSW,246,0.0,0.0,80,0.00,,,0.00,Wunderground v.1.15,2013-03-28 10:22:00,
2013-03-28 06:27:00,30.3,25.2,28.28,WSW,246,0.0,0.0,81,0.00,,,0.00,Wunderground v.1.15,2013-03-28 10:27:00,
2013-03-28 06:32:00,30.1,25.3,28.28,WSW,246,0.0,0.0,82,0.00,,,0.00,Wunderground v.1.15,2013-03-28 10:32:00,
2013-03-28 06:37:00,29.8,25.0,28.28,WSW,246,0.0,0.0,82,0.00,,,0.00,Wunderground v.1.15,2013-03-28 10:37:00,
2013-03-28 06:42:00,29.7,25.2,28.28,WSW,246,0.0,0.0,83,0.00,,,0.00,Wunderground v.1.15,2013-03-28 10:42:00,
2013-03-28 06:48:00,29.4,24.9,28.28,WSW,246,0.0,0.0,83,0.00,,,0.00,Wunderground v.1.15,2013-03-28 10:48:00,
2013-03-28 06:54:00,29.3,24.8,28.28,WSW,246,0.0,0.0,83,0.00,,,0.00,Wunderground v.1.15,2013-03-28 10:54:00,
2013-03-28 06:59:00,29.2,25.0,28.28,WSW,246,0.0,0.0,84,0.00,,,0.00,Wunderground v.1.15,2013-03-28 10:59:00,
2013-03-28 07:05:00,29.2,25.0,28.28,WSW,246,0.0,0.0,84,0.00,,,0.00,Wunderground v.1.15,2013-03-28 11:05:00,
2013-03-28 07:11:00,29.4,25.4,28.28,WSW,246,0.0,0.0,85,0.00,,,0.00,Wunderground v.1.15,2013-03-28 11:11:00,
2013-03-28 07:16:00,29.7,25.7,28.28,WSW,246,0.0,0.0,85,0.00,,,0.00,Wunderground v.1.15,2013-03-28 11:16:00,
2013-03-28 07:21:00,29.8,25.8,28.28,WSW,246,0.0,0.0,85,0.00,,,0.00,Wunderground v.1.15,2013-03-28 11:21:00,
2013-03-28 07:26:00,30.2,26.2,28.28,WSW,246,0.0,0.0,85,0.00,,,0.00,Wunderground v.1.15,2013-03-28 11:26:00,
2013-03-28 07:31:00,31.0,26.7,28.28,WSW,246,0.0,0.0,84,0.00,,,0.00,Wunderground v.1.15,2013-03-28 11:31:00,
2013-03-28 07:37:00,31.6,27.0,28.28,WSW,246,0.0,0.0,83,0.00,,,0.00,Wunderground v.1.15,2013-03-28 11:37:00,
2013-03-28 07:43:00,32.3,27.4,28.28,WSW,246,0.0,0.0,82,0.00,,,0.00,Wunderground v.1.15,2013-03-28 11:43:00,
2013-03-28 07:48:00,33.4,27.9,28.28,WSW,246,1.0,2.0,80,0.00,,,0.00,Wunderground v.1.15,2013-03-28 11:48:00,
2013-03-28 07:54:00,34.4,28.2,28.28,West,259,2.0,5.0,78,0.00,,,0.00,Wunderground v.1.15,2013-03-28 11:54:00,
2013-03-28 07:59:00,35.2,28.7,28.28,West,259,3.0,5.0,77,0.00,,,0.00,Wunderground v.1.15,2013-03-28 11:59:00,
2013-03-28 08:05:00,35.8,28.6,28.28,West,259,3.0,5.0,75,0.00,,,0.00,Wunderground v.1.15,2013-03-28 12:05:00,
2013-03-28 08:11:00,36.2,28.7,28.28,NNW,342,3.0,5.0,74,0.00,,,0.00,Wunderground v.1.15,2013-03-28 12:11:00,
2013-03-28 08:16:00,36.5,29.0,28.28,WSW,244,3.0,8.0,74,0.00,,,0.00,Wunderground v.1.15,2013-03-28 12:16:00,
2013-03-28 08:21:00,36.9,29.4,28.28,WSW,248,2.0,3.0,74,0.00,,,0.00,Wunderground v.1.15,2013-03-28 12:21:00,
2013-03-28 08:26:00,37.1,29.6,28.28,WSW,249,2.0,4.0,74,0.00,,,0.00,Wunderground v.1.15,2013-03-28 12:26:00,
2013-03-28 08:32:00,37.5,30.0,28.28,WSW,250,1.0,1.0,74,0.00,,,0.00,Wunderground v.1.15,2013-03-28 12:32:00,
2013-03-28 08:37:00,37.9,30.0,28.28,WSW,250,1.0,5.0,73,0.00,,,0.00,Wunderground v.1.15,2013-03-28 12:37:00,
2013-03-28 08:42:00,38.2,30.0,28.28,WSW,246,2.0,2.0,72,0.00,,,0.00,Wunderground v.1.15,2013-03-28 12:42:00,
2013-03-28 08:47:00,38.4,30.2,28.28,West,275,2.0,6.0,72,0.00,,,0.00,Wunderground v.1.15,2013-03-28 12:47:00,
2013-03-28 08:53:00,38.8,30.2,28.28,WSW,258,2.0,3.0,71,0.00,,,0.00,Wunderground v.1.15,2013-03-28 12:53:00,
2013-03-28 08:58:00,39.1,30.5,28.28,NNW,346,2.0,3.0,71,0.00,,,0.00,Wunderground v.1.15,2013-03-28 12:58:00,
2013-03-28 09:03:00,39.4,30.8,28.28,West,263,1.0,2.0,71,0.00,,,0.00,Wunderground v.1.15,2013-03-28 13:03:00,
2013-03-28 09:08:00,39.7,30.7,28.28,NW,317,1.0,2.0,70,0.00,,,0.00,Wunderground v.1.15,2013-03-28 13:08:00,
2013-03-28 09:13:00,39.9,30.5,28.28,WSW,241,2.0,4.0,69,0.00,,,0.00,Wunderground v.1.15,2013-03-28 13:13:00,
2013-03-28 09:18:00,40.2,30.8,28.28,West,272,3.0,5.0,69,0.00,,,0.00,Wunderground v.1.15,2013-03-28 13:18:00,
2013-03-28 09:24:00,40.6,30.9,28.28,SW,220,3.0,8.0,68,0.00,,,0.00,Wunderground v.1.15,2013-03-28 13:24:00,
2013-03-28 09:29:00,41.1,31.3,28.28,WSW,243,2.0,8.0,68,0.00,,,0.00,Wunderground v.1.15,2013-03-28 13:29:00,
2013-03-28 09:35:00,41.2,31.1,28.28,SSW,213,1.0,2.0,67,0.00,,,0.00,Wunderground v.1.15,2013-03-28 13:35:00,
2013-03-28 09:40:00,41.2,31.1,28.28,SW,235,1.0,1.0,67,0.00,,,0.00,Wunderground v.1.15,2013-03-28 13:40:00,
2013-03-28 09:45:00,41.3,30.8,28.28,WSW,239,2.0,9.0,66,0.00,,,0.00,Wunderground v.1.15,2013-03-28 13:45:00,
2013-03-28 09:50:00,41.6,31.4,28.28,West,259,2.0,2.0,67,0.00,,,0.00,Wunderground v.1.15,2013-03-28 13:50:00,
2013-03-28 09:55:00,41.8,30.9,28.28,WSW,242,2.0,6.0,65,0.00,,,0.00,Wunderground v.1.15,2013-03-28 13:55:00,
2013-03-28 10:00:00,41.9,31.4,28.28,WSW,249,2.0,2.0,66,0.00,,,0.00,Wunderground v.1.15,2013-03-28 14:00:00,
2013-03-28 10:06:00,42.8,31.5,28.28,WSW,249,2.0,10.0,64,0.00,,,0.00,Wunderground v.1.15,2013-03-28 14:06:00,
2013-03-28 10:11:00,42.7,31.4,28.28,NW,323,4.0,4.0,64,0.00,,,0.00,Wunderground v.1.15,2013-03-28 14:11:00,
2013-03-28 10:16:00,42.6,31.3,28.28,West,260,3.0,7.0,64,0.00,,,0.00,Wunderground v.1.15,2013-03-28 14:16:00,
2013-03-28 10:21:00,42.9,31.2,28.28,WSW,240,2.0,7.0,63,0.00,,,0.00,Wunderground v.1.15,2013-03-28 14:21:00,
2013-03-28 10:26:00,43.2,31.4,28.28,WNW,292,2.0,7.0,63,0.00,,,0.00,Wunderground v.1.15,2013-03-28 14:26:00,
2013-03-28 10:32:00,43.2,31.1,28.28,West,278,1.0,2.0,62,0.00,,,0.00,Wunderground v.1.15,2013-03-28 14:32:00,
2013-03-28 10:38:00,43.2,31.1,28.28,WNW,299,1.0,6.0,62,0.00,,,0.00,Wunderground v.1.15,2013-03-28 14:38:00,
2013-03-28 10:43:00,42.7,30.6,28.28,WNW,286,2.0,7.0,62,0.00,,,0.00,Wunderground v.1.15,2013-03-28 14:43:00,
2013-03-28 10:48:00,42.5,30.8,28.28,SW,227,2.0,7.0,63,0.00,,,0.00,Wunderground v.1.15,2013-03-28 14:48:00,
2013-03-28 10:54:00,42.8,31.1,28.28,SSW,200,2.0,6.0,63,0.00,,,0.00,Wunderground v.1.15,2013-03-28 14:54:00,
2013-03-28 11:00:00,43.4,32.4,28.28,SW,219,2.0,2.0,65,0.00,,,0.00,Wunderground v.1.15,2013-03-28 15:00:00,
2013-03-28 11:07:00,44.6,32.4,28.28,SE,144,1.0,2.0,62,0.00,,,0.00,Wunderground v.1.15,2013-03-28 15:07:00,
2013-03-28 11:12:00,44.9,31.8,28.28,SSW,200,0.0,0.0,60,0.00,,,0.00,Wunderground v.1.15,2013-03-28 15:12:00,
2013-03-28 11:17:00,44.7,31.7,28.28,SSW,205,1.0,5.0,60,0.00,,,0.00,Wunderground v.1.15,2013-03-28 15:17:00,
2013-03-28 11:23:00,44.1,31.1,28.28,WSW,254,2.0,5.0,60,0.00,,,0.00,Wunderground v.1.15,2013-03-28 15:23:00,
2013-03-28 11:28:00,44.1,31.5,28.28,WSW,242,1.0,5.0,61,0.00,,,0.00,Wunderground v.1.15,2013-03-28 15:28:00,
2013-03-28 11:33:00,44.7,32.1,28.28,SW,229,2.0,12.0,61,0.00,,,0.00,Wunderground v.1.15,2013-03-28 15:33:00,
2013-03-28 11:39:00,45.5,32.0,28.28,WSW,243,4.0,12.0,59,0.00,,,0.00,Wunderground v.1.15,2013-03-28 15:39:00,
2013-03-28 11:45:00,45.9,31.9,28.28,West,264,4.0,7.0,58,0.00,,,0.00,Wunderground v.1.15,2013-03-28 15:45:00,
2013-03-28 11:50:00,46.6,33.0,28.28,WSW,239,3.0,3.0,59,0.00,,,0.00,Wunderground v.1.15,2013-03-28 15:50:00,
2013-03-28 11:56:00,45.3,32.2,28.28,West,272,3.0,7.0,60,0.00,,,0.00,Wunderground v.1.15,2013-03-28 15:56:00,
2013-03-28 12:01:00,44.6,32.0,28.28,WSW,257,2.0,2.0,61,0.00,,,0.00,Wunderground v.1.15,2013-03-28 16:01:00,
2013-03-28 12:06:00,44.6,32.0,28.28,SW,215,1.0,3.0,61,0.00,,,0.00,Wunderground v.1.15,2013-03-28 16:06:00,
2013-03-28 12:11:00,44.6,31.6,28.28,ESE,104,1.0,2.0,60,0.00,,,0.00,Wunderground v.1.15,2013-03-28 16:11:00,
2013-03-28 12:16:00,44.0,31.8,28.28,West,261,2.0,7.0,62,0.00,,,0.00,Wunderground v.1.15,2013-03-28 16:16:00,
2013-03-28 12:22:00,42.9,33.1,28.28,West,269,4.0,4.0,68,0.00,,,0.00,Wunderground v.1.15,2013-03-28 16:22:00,
2013-03-28 12:27:00,42.2,33.5,28.28,West,259,2.0,9.0,71,0.00,,,0.00,Wunderground v.1.15,2013-03-28 16:27:00,
2013-03-28 12:32:00,41.5,33.1,28.28,WSW,244,2.0,2.0,72,0.00,,,0.00,Wunderground v.1.15,2013-03-28 16:32:00,
2013-03-28 12:38:00,41.7,33.0,28.28,WSW,255,3.0,5.0,71,0.00,,,0.00,Wunderground v.1.15,2013-03-28 16:38:00,
2013-03-28 12:43:00,42.4,33.3,28.28,West,281,3.0,3.0,70,0.00,,,0.00,Wunderground v.1.15,2013-03-28 16:43:00,
2013-03-28 12:48:00,43.3,33.8,28.28,WSW,252,2.0,6.0,69,0.00,,,0.00,Wunderground v.1.15,2013-03-28 16:48:00,
2013-03-28 12:54:00,44.1,32.7,28.28,WSW,244,3.0,7.0,64,0.00,,,0.00,Wunderground v.1.15,2013-03-28 16:54:00,
2013-03-28 12:59:00,44.8,33.0,28.28,SW,229,3.0,7.0,63,0.00,,,0.00,Wunderground v.1.15,2013-03-28 16:59:00,
2013-03-28 13:04:00,46.0,33.7,28.28,West,264,1.0,2.0,62,0.00,,,0.00,Wunderground v.1.15,2013-03-28 17:04:00,
2013-03-28 13:09:00,46.5,33.4,28.28,WNW,284,1.0,5.0,60,0.00,,,0.00,Wunderground v.1.15,2013-03-28 17:09:00,
2013-03-28 13:15:00,45.8,31.4,28.28,West,265,3.0,9.0,57,0.00,,,0.00,Wunderground v.1.15,2013-03-28 17:15:00,
2013-03-28 13:20:00,45.8,32.3,28.28,SW,227,3.0,5.0,59,0.00,,,0.00,Wunderground v.1.15,2013-03-28 17:20:00,
2013-03-28 13:25:00,46.1,31.7,32.43,SW,224,1.0,5.0,57,0.00,,,0.00,Wunderground v.1.15,2013-03-28 17:25:00,
2013-03-28 13:30:00,46.5,32.5,32.43,West,271,1.0,1.0,58,0.00,,,0.00,Wunderground v.1.15,2013-03-28 17:30:00,
2013-03-28 13:35:00,47.0,31.7,32.43,West,272,1.0,4.0,55,0.00,,,0.00,Wunderground v.1.15,2013-03-28 17:35:00,
2013-03-28 13:40:00,47.5,32.1,32.43,WSW,238,1.0,1.0,55,0.00,,,0.00,Wunderground v.1.15,2013-03-28 17:40:00,
2013-03-28 13:45:00,47.3,31.0,32.43,WSW,246,3.0,6.0,53,0.00,,,0.00,Wunderground v.1.15,2013-03-28 17:45:00,
2013-03-28 13:51:00,47.2,31.4,32.43,NW,309,2.0,3.0,54,0.00,,,0.00,Wunderground v.1.15,2013-03-28 17:51:00,
2013-03-28 13:56:00,46.9,30.6,32.43,NNW,342,1.0,6.0,53,0.00,,,0.00,Wunderground v.1.15,2013-03-28 17:56:00,
2013-03-28 14:01:00,46.5,30.7,32.43,WNW,294,1.0,2.0,54,0.00,,,0.00,Wunderground v.1.15,2013-03-28 18:01:00,
2013-03-28 14:06:00,46.3,31.0,32.43,SSW,195,2.0,3.0,55,0.00,,,0.00,Wunderground v.1.15,2013-03-28 18:06:00,
2013-03-28 14:12:00,46.3,31.0,32.43,WSW,242,1.0,2.0,55,0.00,,,0.00,Wunderground v.1.15,2013-03-28 18:12:00,
2013-03-28 14:17:00,46.1,31.3,32.43,East,84,2.0,7.0,56,0.00,,,0.00,Wunderground v.1.15,2013-03-28 18:17:00,
2013-03-28 14:22:00,46.1,31.3,32.43,NW,322,1.0,2.0,56,0.00,,,0.00,Wunderground v.1.15,2013-03-28 18:22:00,
2013-03-28 14:27:00,46.2,32.2,32.43,NNE,13,1.0,2.0,58,0.00,,,0.00,Wunderground v.1.15,2013-03-28 18:27:00,
2013-03-28 14:32:00,46.3,32.3,30.91,NNW,344,1.0,1.0,58,0.00,,,0.00,Wunderground v.1.15,2013-03-28 18:32:00,
2013-03-28 14:37:00,46.5,32.1,30.91,NNW,346,1.0,1.0,57,0.00,,,0.00,Wunderground v.1.15,2013-03-28 18:37:00,
2013-03-28 14:42:00,46.9,31.6,30.91,North,355,1.0,3.0,55,0.00,,,0.00,Wunderground v.1.15,2013-03-28 18:42:00,
2013-03-28 14:47:00,46.9,31.6,30.91,WSW,250,2.0,5.0,55,0.00,,,0.00,Wunderground v.1.15,2013-03-28 18:47:00,
2013-03-28 14:53:00,46.9,31.6,30.91,West,277,2.0,4.0,55,0.00,,,0.00,Wunderground v.1.15,2013-03-28 18:53:00,
2013-03-28 14:58:00,46.7,31.8,30.91,West,263,1.0,4.0,56,0.00,,,0.00,Wunderground v.1.15,2013-03-28 18:58:00,
2013-03-28 15:03:00,46.9,32.0,30.91,WSW,251,1.0,5.0,56,0.00,,,0.00,Wunderground v.1.15,2013-03-28 19:03:00,
2013-03-28 15:09:00,47.0,32.1,30.91,SW,215,2.0,5.0,56,0.00,,,0.00,Wunderground v.1.15,2013-03-28 19:09:00,
2013-03-28 15:14:00,46.9,30.6,30.91,WSW,257,2.0,10.0,53,0.00,,,0.00,Wunderground v.1.15,2013-03-28 19:14:00,
2013-03-28 15:19:00,47.0,32.1,30.91,West,272,2.0,10.0,56,0.00,,,0.00,Wunderground v.1.15,2013-03-28 19:19:00,
2013-03-28 15:24:00,47.4,31.1,30.91,West,276,1.0,4.0,53,0.00,,,0.00,Wunderground v.1.15,2013-03-28 19:24:00,
2013-03-28 15:30:00,47.4,31.1,30.91,West,262,1.0,1.0,53,0.00,,,0.00,Wunderground v.1.15,2013-03-28 19:30:00,
2013-03-28 15:35:00,47.2,30.9,30.91,WSW,254,1.0,5.0,53,0.00,,,0.00,Wunderground v.1.15,2013-03-28 19:35:00,
2013-03-28 15:40:00,46.9,31.1,30.91,SW,232,1.0,1.0,54,0.00,,,0.00,Wunderground v.1.15,2013-03-28 19:40:00,
2013-03-28 15:45:00,46.7,30.9,30.91,WSW,243,2.0,4.0,54,0.00,,,0.00,Wunderground v.1.15,2013-03-28 19:45:00,
2013-03-28 15:51:00,46.9,31.1,30.91,SW,231,1.0,1.0,54,0.00,,,0.00,Wunderground v.1.15,2013-03-28 19:51:00,
2013-03-28 15:56:00,47.0,31.7,30.91,North,11,1.0,3.0,55,0.00,,,0.00,Wunderground v.1.15,2013-03-28 19:56:00,
2013-03-28 16:02:00,46.8,31.9,30.91,NW,325,1.0,2.0,56,0.00,,,0.00,Wunderground v.1.15,2013-03-28 20:02:00,
2013-03-28 16:07:00,46.8,31.9,30.91,West,267,1.0,2.0,56,0.00,,,0.00,Wunderground v.1.15,2013-03-28 20:07:00,
2013-03-28 16:12:00,46.7,31.4,30.91,SW,233,1.0,4.0,55,0.00,,,0.00,Wunderground v.1.15,2013-03-28 20:12:00,
2013-03-28 16:18:00,46.4,31.5,30.91,West,267,3.0,11.0,56,0.00,,,0.00,Wunderground v.1.15,2013-03-28 20:18:00,
2013-03-28 16:24:00,46.4,31.5,30.91,WNW,287,2.0,3.0,56,0.00,,,0.00,Wunderground v.1.15,2013-03-28 20:24:00,
2013-03-28 16:29:00,46.6,32.2,30.91,NNW,340,1.0,3.0,57,0.00,,,0.00,Wunderground v.1.15,2013-03-28 20:29:00,
2013-03-28 16:34:00,46.6,31.3,30.91,SW,236,1.0,5.0,55,0.00,,,0.00,Wunderground v.1.15,2013-03-28 20:34:00,
2013-03-28 16:39:00,46.3,31.0,30.91,WSW,252,3.0,6.0,55,0.00,,,0.00,Wunderground v.1.15,2013-03-28 20:39:00,
2013-03-28 16:45:00,46.8,31.9,30.91,WSW,254,3.0,4.0,56,0.00,,,0.00,Wunderground v.1.15,2013-03-28 20:45:00,
2013-03-28 16:50:00,47.5,32.1,30.91,West,274,2.0,2.0,55,0.00,,,0.00,Wunderground v.1.15,2013-03-28 20:50:00,
2013-03-28 16:55:00,47.5,31.7,30.91,South,170,3.0,4.0,54,0.00,,,0.00,Wunderground v.1.15,2013-03-28 20:55:00,
2013-03-28 17:00:00,47.4,32.0,30.91,WSW,241,1.0,2.0,55,0.00,,,0.00,Wunderground v.1.15,2013-03-28 21:00:00,
2013-03-28 17:07:00,46.7,31.4,30.91,West,272,2.0,6.0,55,0.00,,,0.00,Wunderground v.1.15,2013-03-28 21:07:00,
2013-03-28 17:12:00,46.3,31.0,30.91,West,264,3.0,6.0,55,0.00,,,0.00,Wunderground v.1.15,2013-03-28 21:12:00,
2013-03-28 17:17:00,46.1,31.3,30.91,WSW,258,3.0,6.0,56,0.00,,,0.00,Wunderground v.1.15,2013-03-28 21:17:00,
2013-03-28 17:23:00,46.3,31.9,30.91,WSW,241,2.0,3.0,57,0.00,,,0.00,Wunderground v.1.15,2013-03-28 21:23:00,
2013-03-28 17:28:00,47.0,32.1,30.91,WSW,253,2.0,8.0,56,0.00,,,0.00,Wunderground v.1.15,2013-03-28 21:28:00,
2013-03-28 17:33:00,47.9,32.0,30.91,SSW,205,3.0,9.0,54,0.00,,,0.00,Wunderground v.1.15,2013-03-28 21:33:00,
2013-03-28 17:39:00,47.7,31.4,30.91,West,261,2.0,9.0,53,0.00,,,0.00,Wunderground v.1.15,2013-03-28 21:39:00,
2013-03-28 17:44:00,47.3,31.9,30.91,West,276,1.0,4.0,55,0.00,,,0.00,Wunderground v.1.15,2013-03-28 21:44:00,
2013-03-28 17:50:00,46.9,32.0,30.91,WSW,257,1.0,1.0,56,0.00,,,0.00,Wunderground v.1.15,2013-03-28 21:50:00,
2013-03-28 17:55:00,46.8,31.5,30.91,WSW,250,1.0,5.0,55,0.00,,,0.00,Wunderground v.1.15,2013-03-28 21:55:00,
2013-03-28 18:00:00,47.0,31.2,30.91,WSW,242,2.0,2.0,54,0.00,,,0.00,Wunderground v.1.15,2013-03-28 22:00:00,
2013-03-28 18:06:00,47.3,31.9,30.91,WSW,241,1.0,2.0,55,0.00,,,0.00,Wunderground v.1.15,2013-03-28 22:06:00,
2013-03-28 18:11:00,47.2,31.4,30.91,NNW,328,1.0,1.0,54,0.00,,,0.00,Wunderground v.1.15,2013-03-28 22:11:00,
2013-03-28 18:16:00,46.8,31.9,30.91,WNW,299,1.0,1.0,56,0.00,,,0.00,Wunderground v.1.15,2013-03-28 22:16:00,
2013-03-28 18:21:00,46.5,30.7,30.91,SW,214,1.0,1.0,54,0.00,,,0.00,Wunderground v.1.15,2013-03-28 22:21:00,
2013-03-28 18:26:00,46.3,31.0,30.91,SSW,213,1.0,2.0,55,0.00,,,0.00,Wunderground v.1.15,2013-03-28 22:26:00,
2013-03-28 18:32:00,46.1,31.3,30.91,WSW,242,1.0,5.0,56,0.00,,,0.00,Wunderground v.1.15,2013-03-28 22:32:00,
2013-03-28 18:38:00,45.9,31.1,30.91,WNW,299,0.0,5.0,56,0.00,,,0.00,Wunderground v.1.15,2013-03-28 22:38:00,
2013-03-28 18:43:00,45.8,31.4,30.91,WNW,299,0.0,1.0,57,0.00,,,0.00,Wunderground v.1.15,2013-03-28 22:43:00,
2013-03-28 18:48:00,45.7,30.9,30.91,WNW,299,0.0,1.0,56,0.00,,,0.00,Wunderground v.1.15,2013-03-28 22:48:00,
2013-03-28 18:54:00,45.6,30.8,30.91,WNW,289,0.0,1.0,56,0.00,,,0.00,Wunderground v.1.15,2013-03-28 22:54:00,
2013-03-28 18:59:00,45.5,30.7,30.91,WNW,288,0.0,1.0,56,0.00,,,0.00,Wunderground v.1.15,2013-03-28 22:59:00,
2013-03-28 19:05:00,45.3,30.5,32.42,WNW,289,0.0,0.0,56,0.00,,,0.00,Wunderground v.1.15,2013-03-28 23:05:00,
2013-03-28 19:10:00,45.2,30.4,30.85,WNW,288,0.0,0.0,56,0.00,,,0.00,Wunderground v.1.15,2013-03-28 23:10:00,
2013-03-28 19:16:00,45.1,30.8,30.85,WNW,288,0.0,0.0,57,0.00,,,0.00,Wunderground v.1.15,2013-03-28 23:16:00,
2013-03-28 19:22:00,45.0,31.1,30.85,WNW,288,0.0,0.0,58,0.00,,,0.00,Wunderground v.1.15,2013-03-28 23:22:00,
2013-03-28 19:27:00,44.9,30.6,30.85,WNW,288,0.0,0.0,57,0.00,,,0.00,Wunderground v.1.15,2013-03-28 23:27:00,
2013-03-28 19:32:00,44.8,30.9,32.05,WNW,288,0.0,0.0,58,0.00,,,0.00,Wunderground v.1.15,2013-03-28 23:32:00,
2013-03-28 19:37:00,44.7,30.8,32.05,WNW,287,0.0,2.0,58,0.00,,,0.00,Wunderground v.1.15,2013-03-28 23:37:00,
2013-03-28 19:43:00,44.7,30.8,32.05,WNW,283,0.0,0.0,58,0.00,,,0.00,Wunderground v.1.15,2013-03-28 23:43:00,
2013-03-28 19:48:00,44.7,30.8,32.05,West,276,1.0,5.0,58,0.00,,,0.00,Wunderground v.1.15,2013-03-28 23:48:00,
2013-03-28 19:54:00,44.8,30.9,32.05,West,266,1.0,4.0,58,0.00,,,0.00,Wunderground v.1.15,2013-03-28 23:54:00,
2013-03-28 19:59:00,44.7,30.8,32.05,West,261,1.0,4.0,58,0.00,,,0.00,Wunderground v.1.15,2013-03-28 23:59:00,
2013-03-28 20:04:00,44.5,30.6,32.05,West,261,1.0,1.0,58,0.00,,,0.00,Wunderground v.1.15,2013-03-29 00:04:00,
2013-03-28 20:09:00,44.5,31.1,32.05,West,261,1.0,4.0,59,0.00,,,0.00,Wunderground v.1.15,2013-03-29 00:09:00,
2013-03-28 20:14:00,44.5,30.6,32.05,West,264,2.0,5.0,58,0.00,,,0.00,Wunderground v.1.15,2013-03-29 00:14:00,
2013-03-28 20:20:00,44.5,30.6,32.05,West,262,2.0,2.0,58,0.00,,,0.00,Wunderground v.1.15,2013-03-29 00:20:00,
2013-03-28 20:25:00,44.5,30.6,29.51,West,267,2.0,4.0,58,0.00,,,0.00,Wunderground v.1.15,2013-03-29 00:25:00,
2013-03-28 20:30:00,44.5,31.1,29.51,West,269,2.0,4.0,59,0.00,,,0.00,Wunderground v.1.15,2013-03-29 00:30:00,
2013-03-28 20:35:00,44.3,30.9,29.51,West,268,1.0,5.0,59,0.00,,,0.00,Wunderground v.1.15,2013-03-29 00:35:00,
2013-03-28 20:41:00,44.3,30.9,29.51,WSW,244,2.0,5.0,59,0.00,,,0.00,Wunderground v.1.15,2013-03-29 00:41:00,
2013-03-28 20:46:00,44.2,30.8,29.51,WSW,244,2.0,5.0,59,0.00,,,0.00,Wunderground v.1.15,2013-03-29 00:46:00,
2013-03-28 20:51:00,44.1,30.7,29.51,WSW,244,2.0,4.0,59,0.00,,,0.00,Wunderground v.1.15,2013-03-29 00:51:00,
2013-03-28 20:57:00,44.1,30.7,29.51,WSW,248,2.0,4.0,59,0.00,,,0.00,Wunderground v.1.15,2013-03-29 00:57:00,
2013-03-28 21:03:00,44.0,31.0,29.51,WSW,248,1.0,4.0,60,0.00,,,0.00,Wunderground v.1.15,2013-03-29 01:03:00,
2013-03-28 21:09:00,43.9,30.9,28.20,WSW,250,1.0,7.0,60,0.00,,,0.00,Wunderground v.1.15,2013-03-29 01:09:00,
2013-03-28 21:15:00,43.7,31.1,28.20,WSW,250,1.0,1.0,61,0.00,,,0.00,Wunderground v.1.15,2013-03-29 01:15:00,
2013-03-28 21:20:00,43.7,30.7,31.70,WSW,249,1.0,1.0,60,0.00,,,0.00,Wunderground v.1.15,2013-03-29 01:20:00,
2013-03-28 21:25:00,43.7,30.7,31.70,WSW,250,2.0,4.0,60,0.00,,,0.00,Wunderground v.1.15,2013-03-29 01:25:00,
2013-03-28 21:31:00,43.6,31.0,31.70,WSW,250,1.0,1.0,61,0.00,,,0.00,Wunderground v.1.15,2013-03-29 01:31:00,
2013-03-28 21:37:00,43.5,30.9,31.70,WSW,249,0.0,6.0,61,0.00,,,0.00,Wunderground v.1.15,2013-03-29 01:37:00,
2013-03-28 21:43:00,43.5,30.9,31.70,WSW,249,1.0,1.0,61,0.00,,,0.00,Wunderground v.1.15,2013-03-29 01:43:00,
2013-03-28 21:48:00,43.4,30.8,31.70,WSW,249,0.0,2.0,61,0.00,,,0.00,Wunderground v.1.15,2013-03-29 01:48:00,
2013-03-28 21:54:00,43.4,30.8,31.70,WSW,249,1.0,1.0,61,0.00,,,0.00,Wunderground v.1.15,2013-03-29 01:54:00,
2013-03-28 22:00:00,43.3,31.1,31.70,WSW,249,0.0,0.0,62,0.00,,,0.00,Wunderground v.1.15,2013-03-29 02:00:00,
2013-03-28 22:06:00,43.2,31.1,31.70,WSW,249,0.0,1.0,62,0.00,,,0.00,Wunderground v.1.15,2013-03-29 02:06:00,
2013-03-28 22:11:00,43.2,31.1,31.70,WSW,249,0.0,2.0,62,0.00,,,0.00,Wunderground v.1.15,2013-03-29 02:11:00,
2013-03-28 22:17:00,43.3,30.7,31.70,WSW,249,2.0,6.0,61,0.00,,,0.00,Wunderground v.1.15,2013-03-29 02:17:00,
2013-03-28 22:23:00,43.3,30.7,31.70,WSW,249,2.0,6.0,61,0.00,,,0.00,Wunderground v.1.15,2013-03-29 02:23:00,
2013-03-28 22:28:00,43.4,30.8,31.70,WSW,252,2.0,6.0,61,0.00,,,0.00,Wunderground v.1.15,2013-03-29 02:28:00,
2013-03-28 22:33:00,43.3,30.7,31.70,West,259,2.0,2.0,61,0.00,,,0.00,Wunderground v.1.15,2013-03-29 02:33:00,
2013-03-28 22:38:00,43.2,31.1,27.09,West,263,1.0,2.0,62,0.00,,,0.00,Wunderground v.1.15,2013-03-29 02:38:00,
2013-03-28 22:43:00,43.2,30.6,27.09,SW,232,1.0,1.0,61,0.00,,,0.00,Wunderground v.1.15,2013-03-29 02:43:00,
2013-03-28 22:49:00,43.1,31.0,27.09,SW,232,0.0,1.0,62,0.00,,,0.00,Wunderground v.1.15,2013-03-29 02:49:00,
2013-03-28 22:54:00,43.0,30.9,27.09,SW,232,0.0,0.0,62,0.00,,,0.00,Wunderground v.1.15,2013-03-29 02:54:00,
2013-03-28 23:00:00,43.0,30.9,27.09,SW,232,0.0,4.0,62,0.00,,,0.00,Wunderground v.1.15,2013-03-29 03:00:00,
2013-03-28 23:07:00,43.0,30.9,27.09,WNW,286,1.0,4.0,62,0.00,,,0.00,Wunderground v.1.15,2013-03-29 03:07:00,
2013-03-28 23:13:00,43.0,30.9,27.09,West,275,1.0,3.0,62,0.00,,,0.00,Wunderground v.1.15,2013-03-29 03:13:00,
2013-03-28 23:18:00,43.1,31.0,27.09,West,275,1.0,3.0,62,0.00,,,0.00,Wunderground v.1.15,2013-03-29 03:18:00,
2013-03-28 23:24:00,43.1,31.0,27.09,West,277,1.0,1.0,62,0.00,,,0.00,Wunderground v.1.15,2013-03-29 03:24:00,
2013-03-28 23:30:00,43.0,30.9,27.09,West,259,0.0,0.0,62,0.00,,,0.00,Wunderground v.1.15,2013-03-29 03:30:00,
2013-03-28 23:35:00,42.9,30.4,27.09,West,273,1.0,1.0,61,0.00,,,0.00,Wunderground v.1.15,2013-03-29 03:35:00,
2013-03-28 23:41:00,43.0,30.9,27.09,WSW,256,1.0,1.0,62,0.00,,,0.00,Wunderground v.1.15,2013-03-29 03:41:00,
2013-03-28 23:46:00,42.9,30.4,27.09,WSW,255,1.0,1.0,61,0.00,,,0.00,Wunderground v.1.15,2013-03-29 03:46:00,
2013-03-28 23:52:00,42.9,30.8,27.09,West,277,1.0,2.0,62,0.00,,,0.00,Wunderground v.1.15,2013-03-29 03:52:00,
2013-03-28 23:57:00,42.9,30.4,27.09,WSW,250,1.0,2.0,61,0.00,,,0.00,Wunderground v.1.15,2013-03-29 03:57:00,